Dewpoint
63 65 66 66 65 66 65 64 63 63 64 64 64 65 64 63 60 57 59 62 65 65 66 64 67 66 63 63 64 64 64 62 63
63 65 65 64 64 64 64 63 63 64 64 65 66 64 63 60 60 62 63 64 66 67 67 67 67 67 67 67 67 67 67 67 65
63 64 64 64 64 64 64 65 65 66 66 65 64 63 63 60 60 61 63 66 64 66 66 65 64 64 64 64 64 64 65 66 67
63 64 64 64 64 65 65 66 66 65 63 62 61 63 61 58 59 60 62 65 65 64 63 62 62 61 60 60 60 60 61 62 63
66 66 66 65 66 66 66 66 66 62 59 61 63 62 60 57 57 60 62 65 64 62 61 61 59 60 59 59 59 59 59 59 59
64 65 66 67 67 67 66 66 64 60 61 62 59 56 53 55 57 58 64 63 62 60 60 59 58 58 57 56 56 57 57 57 57
64 63 65 67 67 67 66 66 60 54 45 44 53 51 51 52 53 54 61 62 60 59 58 58 57 56 54 53 53 53 53 53 53
63 62 63 64 64 63 62 56 51 50 36 35 44 48 48 47 48 54 58 61 58 57 55 54 53 52 51 50 51 51 51 51 51
62 62 62 62 62 59 56 50 42 34 28 29 38 45 44 44 52 55 62 60 57 55 52 51 50 49 49 49 49 49 50 50 50
62 61 61 61 60 57 52 46 33 29 27 25 31 40 41 48 50 52 59 60 55 52 50 49 46 45 46 48 48 48 49 50 50
62 61 60 60 59 56 50 41 29 27 25 24 25 34 40 46 47 50 54 57 53 49 47 44 43 43 43 45 45 46 47 48 48
62 61 60 59 58 53 44 32 28 28 26 24 24 27 39 44 45 47 49 49 52 46 42 42 40 39 42 42 43 44 43 44 45
61 61 60 58 57 50 38 32 30 28 27 25 25 25 31 40 41 42 44 39 38 42 40 36 37 38 37 38 40 40 41 41 43
60 60 59 57 54 45 35 31 30 28 27 24 25 27 26 28 37 37 37 36 37 34 37 37 34 32 33 34 36 37 39 39 41
59 58 57 54 50 41 34 30 29 28 27 23 27 29 30 28 34 33 32 33 31 29 30 28 25 35 34 31 33 35 37 37 38
58 57 55 52 49 43 33 30 27 27 28 28 28 29 27 25 26 28 28 28 26 26 25 23 22 23 32 34 34 35 38 37 38
57 57 54 51 46 37 32 30 30 28 29 28 29 26 25 26 24 28 26 25 26 24 21 19 20 22 23 28 34 35 36 38 39
57 56 54 50 46 40 34 34 35 32 27 26 30 27 27 24 22 24 24 21 24 22 20 20 20 20 22 27 30 35 35 37 40
57 56 54 51 48 47 42 43 44 46 38 29 24 21 26 26 19 21 21 20 19 20 20 20 20 21 24 29 33 34 35 38 41
58 56 54 50 47 47 45 43 42 44 40 36 34 27 24 19 21 18 20 21 20 19 19 20 21 20 23 24 30 33 35 37 40
Lifted_Index
4 3 3 3 3 3 3 4 4 3 3 2 2 2 3 3 3 2 1 0 -0 -1 -1 -1 -1 -1 -0 -0 -0 -1 -0 -0 -0
4 3 3 3 3 3 3 3 3 2 2 2 2 2 3 3 2 2 1 -0 -1 -1 -1 -1 -1 -0 0 0 -0 -0 -0 -0 -0
3 3 3 3 3 3 2 2 2 1 1 1 2 2 2 2 2 1 0 -0 -0 -0 -0 0 1 1 1 1 1 1 1 0 -0
2 2 2 2 2 2 1 1 1 1 2 2 2 2 2 2 1 1 0 0 0 0 1 1 2 3 3 3 3 3 2 2 2
1 1 1 1 1 0 0 0 1 2 3 3 3 2 2 3 2 1 1 0 1 1 2 3 3 4 4 5 4 4 4 4 4
1 1 0 -0 -1 -1 -1 0 2 4 5 4 4 4 4 4 3 2 1 1 2 3 3 4 4 5 6 6 6 6 6 6 6
0 0 -0 -1 -1 -1 -1 1 3 5 5 5 5 5 6 6 5 4 2 2 3 4 4 5 5 6 7 8 8 8 8 8 8
-1 -0 -1 -1 -1 -1 -0 1 3 4 5 5 6 7 8 8 7 5 3 3 3 5 6 6 7 8 8 9 9 9 9 9 9
-1 -1 -1 -1 -1 -1 1 2 3 4 4 4 6 8 10 10 9 6 4 3 4 6 7 8 9 9 9 9 9 9 10 10 10
-1 -1 -1 -1 -1 -0 1 2 2 3 3 4 6 9 11 11 10 7 5 5 6 7 9 10 10 10 10 10 10 10 10 10 10
-1 -1 -1 -1 -0 0 1 1 2 3 3 4 7 9 11 11 10 9 7 7 8 9 10 11 11 11 11 11 11 11 11 11 11
-1 -1 -1 -0 0 1 1 1 1 2 3 4 7 9 10 11 11 10 9 10 11 12 12 13 13 13 12 12 12 12 12 12 12
-1 -1 -1 -1 0 1 1 1 1 1 2 4 7 9 9 10 11 11 11 12 13 14 14 14 14 14 14 14 13 13 13 13 13
-0 -0 -1 -1 -0 0 0 0 1 1 1 3 6 8 9 9 10 12 13 14 14 15 15 15 16 16 16 15 15 15 15 15 15
0 0 -0 -1 -1 -0 0 -0 0 1 1 3 6 8 8 8 10 11 12 13 14 15 15 16 16 16 16 17 17 16 16 16 16
-1 -0 -0 -1 -1 -0 0 -0 0 1 1 2 4 6 7 7 9 10 11 12 13 14 15 15 16 16 17 17 17 17 17 17 17
-2 -1 -1 -1 -1 -0 -0 -0 -0 0 1 2 2 3 5 6 8 9 10 11 12 13 14 15 16 16 17 17 18 18 18 17 17
-3 -2 -2 -1 -1 -0 -0 -0 -0 -0 0 1 1 2 3 4 6 8 9 10 11 12 13 14 15 16 17 18 18 19 18 18 17
-3 -3 -2 -2 -1 -1 -1 -1 -0 -0 0 1 1 2 4 4 5 6 8 9 10 12 13 14 15 16 17 18 19 19 19 18 17
-3 -2 -2 -2 -1 -1 -1 -1 -0 -0 0 0 1 2 4 4 4 5 7 8 10 12 13 14 15 17 18 18 19 19 19 19 18